| time (UTC) | temp F | wind direction | speed MPH | gust MPH | rain 1hr in | rain 24hr in | rain mn in | humidity % | barometer mb |
| 20260903123023 | 77 | 223 | 0.0 | 3.0 | 0.00 | 0.00 | 0.00 | 1014.2 | |
| 20260903122522 | 76 | 234 | 0.0 | 0.0 | 0.00 | 0.00 | 0.00 | 1014.2 | |
| 20260903122022 | 76 | 204 | 0.0 | 0.0 | 0.00 | 0.00 | 0.00 | 1014.2 | |
| 20260903121523 | 76 | 187 | 0.0 | 0.0 | 0.00 | 0.00 | 0.00 | 1014.2 | |
| 20260903121022 | 76 | 196 | 0.0 | 0.0 | 0.00 | 0.00 | 0.00 | 1014.2 | |
| 20260903120543 | 76 | 220 | 0.0 | 0.0 | 0.00 | 0.00 | 0.00 | 1014.2 | |
| 20260903120024 | 76 | 205 | 0.0 | 0.0 | 0.00 | 0.00 | 0.00 | 1014.2 | |
| 20260903115523 | 76 | 191 | 0.0 | 4.0 | 0.00 | 0.00 | 0.00 | 1014.2 | |
| 20260903115022 | 75 | 199 | 0.0 | 0.0 | 0.00 | 0.00 | 0.00 | 1014.2 | |
| 20260903114527 | 75 | 205 | 0.0 | 0.0 | 0.00 | 0.00 | 0.00 | 1014.2 | |
| 20260903114033 | 75 | 204 | 0.0 | 0.0 | 0.00 | 0.00 | 0.00 | 1014.2 | |
| 20260903113527 | 75 | 236 | 0.0 | 0.0 | 0.00 | 0.00 | 0.00 | 1014.2 | |
| 20260903113031 | 76 | 240 | 0.0 | 0.0 | 0.00 | 0.00 | 0.00 | 1014.2 | |
| 20260903112523 | 76 | 194 | 0.0 | 0.0 | 0.00 | 0.00 | 0.00 | 1014.2 | |
| 20260903112025 | 76 | 179 | 0.0 | 0.0 | 0.00 | 0.00 | 0.00 | 1014.2 | |
| 20260903111522 | 76 | 189 | 0.0 | 0.0 | 0.00 | 0.00 | 0.00 | 1014.2 | |
| 20260903111027 | 76 | 182 | 0.0 | 0.0 | 0.00 | 0.00 | 0.00 | 1014.2 | |
| 20260903110523 | 76 | 175 | 0.0 | 0.0 | 0.00 | 0.00 | 0.00 | 1014.2 | |
| 20260903110046 | 76 | 200 | 0.0 | 2.0 | 0.00 | 0.00 | 0.00 | 1014.2 | |
| 20260903105549 | 76 | 232 | 0.0 | 0.0 | 0.00 | 0.00 | 0.00 | 1014.2 | |
| 20260903105044 | 75 | 199 | 0.0 | 0.0 | 0.00 | 0.00 | 0.00 | 1014.2 | |
| 20260903104529 | 75 | 193 | 0.0 | 0.0 | 0.00 | 0.00 | 0.00 | 1014.2 | |
| 20260903104022 | 75 | 241 | 0.0 | 0.0 | 0.00 | 0.00 | 0.00 | 1014.2 | |
| 20260903103523 | 75 | 241 | 0.0 | 0.0 | 0.00 | 0.00 | 0.00 | 1014.2 | |
| 20260903103032 | 75 | 241 | 0.0 | 0.0 | 0.00 | 0.00 | 0.00 | 1014.2 | |
| 20260903102525 | 75 | 241 | 0.0 | 0.0 | 0.00 | 0.00 | 0.00 | 1014.2 | |
| 20260903102024 | 75 | 241 | 0.0 | 0.0 | 0.00 | 0.00 | 0.00 | 1014.2 | |
| 20260903101523 | 75 | 241 | 0.0 | 0.0 | 0.00 | 0.00 | 0.00 | 1014.2 | |
| 20260903101022 | 75 | 241 | 0.0 | 0.0 | 0.00 | 0.00 | 0.00 | 1014.2 | |
| 20260903100522 | 75 | 241 | 0.0 | 0.0 | 0.00 | 0.00 | 0.00 | 1014.2 | |
| 20260903100028 | 75 | 241 | 0.0 | 0.0 | 0.00 | 0.00 | 0.00 | 1014.2 | |
| 20260903095543 | 75 | 241 | 0.0 | 0.0 | 0.00 | 0.00 | 0.00 | 1014.2 | |
| 20260903095023 | 75 | 241 | 0.0 | 0.0 | 0.00 | 0.00 | 0.00 | 1014.2 | |
| 20260903094522 | 75 | 241 | 0.0 | 0.0 | 0.00 | 0.00 | 0.00 | 1014.2 | |
| 20260903094023 | 75 | 241 | 0.0 | 0.0 | 0.00 | 0.00 | 0.00 | 1014.2 | |
| 20260903093523 | 75 | 241 | 0.0 | 0.0 | 0.00 | 0.00 | 0.00 | 1014.2 | |
| 20260903093023 | 76 | 241 | 0.0 | 0.0 | 0.00 | 0.00 | 0.00 | 1014.2 | |
| 20260903092522 | 76 | 241 | 0.0 | 0.0 | 0.00 | 0.00 | 0.00 | 1014.2 | |
| 20260903092023 | 76 | 241 | 0.0 | 0.0 | 0.00 | 0.00 | 0.00 | 1014.2 | |
| 20260903091523 | 76 | 241 | 0.0 | 0.0 | 0.00 | 0.00 | 0.00 | 1014.2 | |
| 20260903091022 | 76 | 241 | 0.0 | 0.0 | 0.00 | 0.00 | 0.00 | 1014.2 | |
| 20260903090523 | 76 | 241 | 0.0 | 0.0 | 0.00 | 0.00 | 0.00 | 1014.2 | |
| 20260903090024 | 76 | 241 | 0.0 | 0.0 | 0.00 | 0.00 | 0.00 | 1014.2 | |
| 20260903085522 | 77 | 241 | 0.0 | 0.0 | 0.00 | 0.00 | 0.00 | 1014.2 | |
| 20260903085043 | 77 | 241 | 0.0 | 0.0 | 0.00 | 0.00 | 0.00 | 1014.2 | |
| 20260903084521 | 77 | 241 | 0.0 | 0.0 | 0.00 | 0.00 | 0.00 | 1014.2 | |
| 20260903084023 | 77 | 241 | 0.0 | 0.0 | 0.00 | 0.00 | 0.00 | 1014.2 | |
| 20260903083523 | 77 | 241 | 0.0 | 0.0 | 0.00 | 0.00 | 0.00 | 1014.2 | |
| 20260903083024 | 77 | 241 | 0.0 | 0.0 | 0.00 | 0.00 | 0.00 | 1014.2 | |
| 20260903082524 | 77 | 241 | 0.0 | 0.0 | 0.00 | 0.00 | 0.00 | 1014.2 | |
| 20260903082022 | 77 | 241 | 0.0 | 0.0 | 0.00 | 0.00 | 0.00 | 1014.2 | |
| 20260903081522 | 77 | 241 | 0.0 | 0.0 | 0.00 | 0.00 | 0.00 | 1014.2 | |
| 20260903081027 | 77 | 241 | 0.0 | 0.0 | 0.00 | 0.00 | 0.00 | 1014.2 | |
| 20260903080523 | 77 | 241 | 0.0 | 0.0 | 0.00 | 0.00 | 0.00 | 1013.2 | |
| 20260903080031 | 77 | 241 | 0.0 | 0.0 | 0.00 | 0.00 | 0.00 | 1013.2 | |
| 20260903075522 | 77 | 241 | 0.0 | 0.0 | 0.00 | 0.00 | 0.00 | 1013.2 | |
| 20260903075029 | 76 | 241 | 0.0 | 0.0 | 0.00 | 0.00 | 0.00 | 1013.2 | |
| 20260903074535 | 76 | 241 | 0.0 | 0.0 | 0.00 | 0.00 | 0.00 | 1013.2 | |
| 20260903074023 | 77 | 241 | 0.0 | 0.0 | 0.00 | 0.00 | 0.00 | 1013.2 | |
| 20260903073529 | 77 | 241 | 0.0 | 0.0 | 0.00 | 0.00 | 0.00 | 1013.2 | |
| 20260903073044 | 77 | 241 | 0.0 | 0.0 | 0.00 | 0.00 | 0.00 | 1013.2 | |
| 20260903072522 | 77 | 241 | 0.0 | 0.0 | 0.00 | 0.00 | 0.00 | 1013.2 | |
| 20260903072023 | 77 | 241 | 0.0 | 0.0 | 0.00 | 0.00 | 0.00 | 1014.2 | |
| 20260903071524 | 77 | 241 | 0.0 | 0.0 | 0.00 | 0.00 | 0.00 | 1014.2 | |
| 20260903071022 | 77 | 241 | 0.0 | 0.0 | 0.00 | 0.00 | 0.00 | 1014.2 | |
| 20260903070527 | 77 | 241 | 0.0 | 0.0 | 0.00 | 0.00 | 0.00 | 1014.2 | |
| 20260903070028 | 77 | 241 | 0.0 | 0.0 | 0.00 | 0.00 | 0.00 | 1014.2 | |
| 20260903065525 | 77 | 241 | 0.0 | 0.0 | 0.00 | 0.00 | 0.00 | 1014.2 | |
| 20260903065030 | 77 | 241 | 0.0 | 0.0 | 0.00 | 0.00 | 0.00 | 1014.2 | |
| 20260903064523 | 77 | 241 | 0.0 | 0.0 | 0.00 | 0.00 | 0.00 | 1014.2 | |
| 20260903064022 | 78 | 241 | 0.0 | 0.0 | 0.00 | 0.00 | 0.00 | 1014.2 | |
| 20260903063525 | 78 | 241 | 0.0 | 0.0 | 0.00 | 0.00 | 0.00 | 1014.2 | |
| 20260903063025 | 78 | 241 | 0.0 | 0.0 | 0.00 | 0.00 | 0.00 | 1014.2 | |
| 20260903062523 | 78 | 241 | 0.0 | 0.0 | 0.00 | 0.00 | 0.00 | 1014.2 | |
| 20260903062022 | 78 | 241 | 0.0 | 0.0 | 0.00 | 0.00 | 0.00 | 1014.2 | |
| 20260903061522 | 78 | 241 | 0.0 | 0.0 | 0.00 | 0.00 | 0.00 | 1014.2 | |
| 20260903061022 | 78 | 241 | 0.0 | 0.0 | 0.00 | 0.00 | 0.00 | 1014.2 | |
| 20260903060523 | 78 | 241 | 0.0 | 0.0 | 0.00 | 0.00 | 0.00 | 1014.2 | |
| 20260903060023 | 78 | 241 | 0.0 | 0.0 | 0.00 | 0.00 | 0.00 | 1014.2 | |
| 20260903055523 | 78 | 241 | 0.0 | 0.0 | 0.00 | 0.00 | 0.00 | 1014.2 | |
| 20260903055023 | 78 | 241 | 0.0 | 0.0 | 0.00 | 0.00 | 0.00 | 1014.2 | |
| 20260903054523 | 78 | 241 | 0.0 | 0.0 | 0.00 | 0.00 | 0.00 | 1014.2 | |
| 20260903054023 | 78 | 241 | 0.0 | 0.0 | 0.00 | 0.00 | 0.00 | 1014.2 | |
| 20260903053523 | 78 | 241 | 0.0 | 0.0 | 0.00 | 0.00 | 0.00 | 1014.2 | |
| 20260903053023 | 78 | 241 | 0.0 | 0.0 | 0.00 | 0.00 | 0.00 | 1014.2 | |
| 20260903052522 | 78 | 241 | 0.0 | 0.0 | 0.00 | 0.00 | 0.00 | 1014.2 | |
| 20260903052022 | 79 | 224 | 0.0 | 0.0 | 0.00 | 0.00 | 0.00 | 1014.2 | |
| 20260903051544 | 79 | 224 | 0.0 | 0.0 | 0.00 | 0.00 | 0.00 | 1014.2 | |
| 20260903051023 | 79 | 225 | 0.0 | 0.0 | 0.00 | 0.00 | 0.00 | 1014.2 | |
| 20260903050544 | 79 | 225 | 0.0 | 0.0 | 0.00 | 0.00 | 0.00 | 1014.2 | |
| 20260903050026 | 79 | 225 | 0.0 | 0.0 | 0.00 | 0.00 | 0.00 | 1014.2 | |
| 20260903045523 | 79 | 225 | 0.0 | 0.0 | 0.00 | 0.00 | 0.00 | 1014.2 | |
| 20260903045044 | 79 | 240 | 0.0 | 0.0 | 0.00 | 0.00 | 0.00 | 1013.2 | |
| 20260903044523 | 79 | 239 | 0.0 | 0.0 | 0.00 | 0.00 | 0.00 | 1013.2 | |
| 20260903044022 | 79 | 240 | 0.0 | 0.0 | 0.00 | 0.00 | 0.00 | 1013.2 | |
| 20260903043546 | 79 | 240 | 0.0 | 0.0 | 0.00 | 0.00 | 0.00 | 1013.2 | |
| 20260903043025 | 79 | 240 | 0.0 | 0.0 | 0.00 | 0.00 | 0.00 | 1013.2 | |
| 20260903042522 | 79 | 240 | 0.0 | 0.0 | 0.00 | 0.00 | 0.00 | 1013.2 | |
| 20260903042047 | 79 | 240 | 0.0 | 0.0 | 0.00 | 0.00 | 0.00 | 1013.2 | |
| 20260903041523 | 79 | 240 | 0.0 | 0.0 | 0.00 | 0.00 | 0.00 | 1013.2 | |
| 20260903041025 | 79 | 240 | 0.0 | 0.0 | 0.00 | 0.00 | 0.00 | 1013.2 | |
| 20260903040529 | 79 | 240 | 0.0 | 0.0 | 0.00 | 0.00 | 0.00 | 1013.2 | |
| 20260903040054 | 79 | 240 | 0.0 | 0.0 | 0.00 | 0.00 | 0.00 | 1013.2 | |
| 20260903035531 | 79 | 240 | 0.0 | 0.0 | 0.00 | 0.00 | 0.00 | 1013.2 | |
| 20260903035023 | 79 | 240 | 0.0 | 0.0 | 0.00 | 0.00 | 0.00 | 1013.2 | |
| 20260903034526 | 79 | 240 | 0.0 | 0.0 | 0.00 | 0.00 | 0.00 | 1013.2 | |
| 20260903034023 | 79 | 240 | 0.0 | 0.0 | 0.00 | 0.00 | 0.00 | 1013.2 | |
| 20260903033527 | 79 | 240 | 0.0 | 0.0 | 0.00 | 0.00 | 0.00 | 1013.2 | |
| 20260903033023 | 79 | 240 | 0.0 | 0.0 | 0.00 | 0.00 | 0.00 | 1013.2 | |
| 20260903032523 | 79 | 240 | 0.0 | 0.0 | 0.00 | 0.00 | 0.00 | 1013.2 | |
| 20260903032027 | 79 | 240 | 0.0 | 0.0 | 0.00 | 0.00 | 0.00 | 1013.2 | |
| 20260903031523 | 79 | 240 | 0.0 | 0.0 | 0.00 | 0.00 | 0.00 | 1013.2 | |
| 20260903031028 | 79 | 240 | 0.0 | 0.0 | 0.00 | 0.00 | 0.00 | 1013.2 | |
| 20260903030522 | 79 | 240 | 0.0 | 0.0 | 0.00 | 0.00 | 0.00 | 1013.2 | |
| 20260903030037 | 79 | 240 | 0.0 | 0.0 | 0.00 | 0.00 | 0.00 | 1013.2 | |
| 20260903025526 | 79 | 240 | 0.0 | 0.0 | 0.00 | 0.00 | 0.00 | 1013.2 | |
| 20260903025026 | 79 | 240 | 0.0 | 0.0 | 0.00 | 0.00 | 0.00 | 1013.2 | |
| 20260903024523 | 79 | 240 | 0.0 | 0.0 | 0.00 | 0.00 | 0.00 | 1013.2 | |
| 20260903024023 | 79 | 240 | 0.0 | 0.0 | 0.00 | 0.00 | 0.00 | 1013.2 | |
| 20260903023523 | 79 | 240 | 0.0 | 0.0 | 0.00 | 0.00 | 0.00 | 1013.2 | |
| 20260903023023 | 79 | 240 | 0.0 | 0.0 | 0.00 | 0.00 | 0.00 | 1013.2 | |
| 20260903022543 | 79 | 240 | 0.0 | 0.0 | 0.00 | 0.00 | 0.00 | 1013.2 | |
| 20260903022022 | 79 | 240 | 0.0 | 0.0 | 0.00 | 0.00 | 0.00 | 1013.2 | |
| 20260903021523 | 79 | 240 | 0.0 | 0.0 | 0.00 | 0.00 | 0.00 | 1013.2 | |
| 20260903021023 | 79 | 240 | 0.0 | 0.0 | 0.00 | 0.00 | 0.00 | 1013.2 | |
| 20260903020523 | 79 | 240 | 0.0 | 0.0 | 0.00 | 0.00 | 0.00 | 1013.2 | |
| 20260903020029 | 79 | 240 | 0.0 | 0.0 | 0.00 | 0.00 | 0.00 | 1013.2 | |
| 20260903015523 | 80 | 240 | 0.0 | 0.0 | 0.00 | 0.00 | 0.00 | 1013.2 | |
| 20260903015023 | 80 | 240 | 0.0 | 0.0 | 0.00 | 0.00 | 0.00 | 1013.2 | |
| 20260903014529 | 80 | 240 | 0.0 | 0.0 | 0.00 | 0.00 | 0.00 | 1013.2 | |
| 20260903014023 | 80 | 240 | 0.0 | 0.0 | 0.00 | 0.00 | 0.00 | 1013.2 | |
| 20260903013522 | 80 | 240 | 0.0 | 0.0 | 0.00 | 0.00 | 0.00 | 1013.2 | |
| 20260903013023 | 80 | 240 | 0.0 | 0.0 | 0.00 | 0.00 | 0.00 | 1013.2 | |
| 20260903012522 | 81 | 240 | 0.0 | 0.0 | 0.00 | 0.00 | 0.00 | 1013.2 | |
| 20260903012022 | 81 | 240 | 0.0 | 0.0 | 0.00 | 0.00 | 0.00 | 1013.2 | |
| 20260903011523 | 81 | 240 | 0.0 | 0.0 | 0.00 | 0.00 | 0.00 | 1013.2 | |
| 20260903011022 | 81 | 240 | 0.0 | 0.0 | 0.00 | 0.00 | 0.00 | 1013.2 | |
| 20260903010522 | 81 | 240 | 0.0 | 0.0 | 0.00 | 0.00 | 0.00 | 1012.2 | |
| 20260903010031 | 81 | 240 | 0.0 | 0.0 | 0.00 | 0.00 | 0.00 | 1012.2 | |
| 20260903005523 | 82 | 240 | 0.0 | 0.0 | 0.00 | 0.00 | 0.00 | 1012.2 | |
| 20260903005023 | 82 | 240 | 0.0 | 0.0 | 0.00 | 0.00 | 0.00 | 1013.2 | |
| 20260903004535 | 82 | 240 | 0.0 | 0.0 | 0.00 | 0.00 | 0.00 | 1013.2 | |
| 20260903004028 | 83 | 240 | 0.0 | 0.0 | 0.00 | 0.00 | 0.00 | 1013.2 | |
| 20260903003533 | 83 | 240 | 0.0 | 0.0 | 0.00 | 0.00 | 0.00 | 1013.2 | |
| 20260903003023 | 83 | 240 | 0.0 | 0.0 | 0.00 | 0.00 | 0.00 | 1013.2 | |
| 20260903002527 | 84 | 240 | 0.0 | 0.0 | 0.00 | 0.00 | 0.00 | 1013.2 | |
| 20260903002023 | 84 | 240 | 0.0 | 0.0 | 0.00 | 0.00 | 0.00 | 1013.2 | |
| 20260903001528 | 85 | 240 | 0.0 | 0.0 | 0.00 | 0.00 | 0.00 | 1013.2 | |
| 20260903001032 | 85 | 240 | 0.0 | 0.0 | 0.00 | 0.00 | 0.00 | 1013.2 | |
| 20260903000527 | 85 | 240 | 0.0 | 0.0 | 0.00 | 0.00 | 0.00 | 1013.2 | |
| 20260903000034 | 85 | 240 | 0.0 | 0.0 | 0.00 | 0.00 | 0.00 | 1013.2 | |
| 20260902235525 | 86 | 240 | 0.0 | 0.0 | 0.00 | 0.00 | 0.00 | 1013.2 | |
| 20260902235025 | 86 | 200 | 0.0 | 0.0 | 0.00 | 0.00 | 0.00 | 1012.2 | |
| 20260902234523 | 86 | 210 | 0.0 | 0.0 | 0.00 | 0.00 | 0.00 | 1012.2 | |
| 20260902234023 | 87 | 219 | 0.0 | 0.0 | 0.00 | 0.00 | 0.00 | 1012.2 | |
| 20260902233523 | 87 | 190 | 4.0 | 3.0 | 0.00 | 0.00 | 0.00 | 1012.2 | |
| 20260902233024 | 87 | 223 | 0.0 | 0.0 | 0.00 | 0.00 | 0.00 | 1012.2 | |
| 20260902232531 | 87 | 207 | 0.0 | 0.0 | 0.00 | 0.00 | 0.00 | 1012.2 | |
| 20260902232026 | 87 | 221 | 0.0 | 3.0 | 0.00 | 0.00 | 0.00 | 1012.2 | |
| 20260902231523 | 88 | 217 | 0.0 | 0.0 | 0.00 | 0.00 | 0.00 | 1012.2 | |
| 20260902231023 | 88 | 163 | 0.0 | 3.0 | 0.00 | 0.00 | 0.00 | 1012.2 | |
| 20260902230522 | 88 | 195 | 0.0 | 3.0 | 0.00 | 0.00 | 0.00 | 1012.2 | |
| 20260902230023 | 88 | 208 | 0.0 | 0.0 | 0.00 | 0.00 | 0.00 | 1012.2 | |
| 20260902225522 | 87 | 236 | 0.0 | 0.0 | 0.00 | 0.00 | 0.00 | 1012.2 | |
| 20260902225023 | 87 | 203 | 2.0 | 0.0 | 0.00 | 0.00 | 0.00 | 1012.2 | |
| 20260902224543 | 87 | 223 | 0.0 | 4.0 | 0.00 | 0.00 | 0.00 | 1012.2 | |
| 20260902224023 | 87 | 241 | 0.0 | 0.0 | 0.00 | 0.00 | 0.00 | 1012.2 | |
| 20260902223523 | 88 | 202 | 0.0 | 0.0 | 0.00 | 0.00 | 0.00 | 1012.2 | |
| 20260902223024 | 88 | 245 | 2.0 | 2.0 | 0.00 | 0.00 | 0.00 | 1012.2 | |
| 20260902222522 | 88 | 192 | 0.0 | 0.0 | 0.00 | 0.00 | 0.00 | 1012.2 | |
| 20260902222023 | 88 | 187 | 0.0 | 4.0 | 0.00 | 0.00 | 0.00 | 1013.2 | |
| 20260902221523 | 88 | 199 | 0.0 | 0.0 | 0.00 | 0.00 | 0.00 | 1013.2 | |
| 20260902221023 | 88 | 246 | 0.0 | 0.0 | 0.00 | 0.00 | 0.00 | 1013.2 | |
| 20260902220523 | 88 | 231 | 3.0 | 6.0 | 0.00 | 0.00 | 0.00 | 1013.2 | |
| 20260902220022 | 88 | 238 | 3.0 | 2.0 | 0.00 | 0.00 | 0.00 | 1013.2 | |
| 20260902215522 | 88 | 226 | 0.0 | 0.0 | 0.00 | 0.00 | 0.00 | 1013.2 | |
| 20260902215044 | 88 | 185 | 2.0 | 4.0 | 0.00 | 0.00 | 0.00 | 1013.2 | |
| 20260902214522 | 89 | 236 | 2.0 | 0.0 | 0.00 | 0.00 | 0.00 | 1013.2 | |
| 20260902214044 | 89 | 229 | 3.0 | 5.0 | 0.00 | 0.00 | 0.00 | 1013.2 | |
| 20260902213523 | 89 | 205 | 3.0 | 4.0 | 0.00 | 0.00 | 0.00 | 1013.2 | |
| 20260902213040 | 90 | 163 | 0.0 | 6.0 | 0.00 | 0.00 | 0.00 | 1013.2 | |
| 20260902212523 | 90 | 210 | 3.0 | 6.0 | 0.00 | 0.00 | 0.00 | 1013.2 | |
| 20260902212044 | 90 | 205 | 0.0 | 3.0 | 0.00 | 0.00 | 0.00 | 1013.2 | |
| 20260902211522 | 90 | 227 | 3.0 | 3.0 | 0.00 | 0.00 | 0.00 | 1013.2 | |
| 20260902211023 | 90 | 209 | 3.0 | 4.0 | 0.00 | 0.00 | 0.00 | 1013.2 | |
| 20260902210532 | 91 | 205 | 4.0 | 0.0 | 0.00 | 0.00 | 0.00 | 1013.2 | |
| 20260902210026 | 91 | 228 | 0.0 | 2.0 | 0.00 | 0.00 | 0.00 | 1013.2 | |
| 20260902205531 | 91 | 221 | 0.0 | 0.0 | 0.00 | 0.00 | 0.00 | 1013.2 | |
| 20260902205024 | 91 | 171 | 4.0 | 2.0 | 0.00 | 0.00 | 0.00 | 1013.2 | |
| 20260902204529 | 91 | 172 | 3.0 | 3.0 | 0.00 | 0.00 | 0.00 | 1013.2 | |
| 20260902204035 | 91 | 202 | 3.0 | 3.0 | 0.00 | 0.00 | 0.00 | 1013.2 | |
| 20260902203522 | 90 | 218 | 3.0 | 5.0 | 0.00 | 0.00 | 0.00 | 1013.2 | |
| 20260902203029 | 90 | 209 | 4.0 | 3.0 | 0.00 | 0.00 | 0.00 | 1013.2 | |
| 20260902202525 | 90 | 237 | 2.0 | 3.0 | 0.00 | 0.00 | 0.00 | 1013.2 | |
| 20260902202029 | 90 | 217 | 4.0 | 4.0 | 0.00 | 0.00 | 0.00 | 1013.2 | |
| 20260902201523 | 90 | 168 | 4.0 | 6.0 | 0.00 | 0.00 | 0.00 | 1013.2 | |
| 20260902201030 | 90 | 77 | 4.0 | 3.0 | 0.00 | 0.00 | 0.00 | 1013.2 | |
| 20260902200523 | 91 | 227 | 0.0 | 0.0 | 0.00 | 0.00 | 0.00 | 1013.2 | |
| 20260902200023 | 91 | 249 | 0.0 | 3.0 | 0.00 | 0.00 | 0.00 | 1013.2 | |
| 20260902195525 | 92 | 174 | 4.0 | 4.0 | 0.00 | 0.00 | 0.00 | 1013.2 | |
| 20260902195024 | 92 | 175 | 3.0 | 2.0 | 0.00 | 0.00 | 0.00 | 1013.2 | |
| 20260902194537 | 92 | 264 | 0.0 | 3.0 | 0.00 | 0.00 | 0.00 | 1013.2 | |
| 20260902194023 | 92 | 200 | 3.0 | 3.0 | 0.00 | 0.00 | 0.00 | 1013.2 | |
| 20260902193543 | 92 | 161 | 4.0 | 3.0 | 0.00 | 0.00 | 0.00 | 1013.2 | |
| 20260902193023 | 92 | 182 | 4.0 | 0.0 | 0.00 | 0.00 | 0.00 | 1013.2 | |
| 20260902192523 | 92 | 232 | 2.0 | 4.0 | 0.00 | 0.00 | 0.00 | 1013.2 | |
| 20260902192023 | 92 | 236 | 2.0 | 4.0 | 0.00 | 0.00 | 0.00 | 1013.2 | |
| 20260902191523 | 92 | 190 | 3.0 | 7.0 | 0.00 | 0.00 | 0.00 | 1013.2 | |
| 20260902191023 | 92 | 215 | 3.0 | 4.0 | 0.00 | 0.00 | 0.00 | 1013.2 | |
| 20260902190523 | 92 | 175 | 4.0 | 4.0 | 0.00 | 0.00 | 0.00 | 1014.2 | |
| 20260902190029 | 93 | 207 | 6.0 | 4.0 | 0.00 | 0.00 | 0.00 | 1014.2 | |
| 20260902185522 | 93 | 208 | 4.0 | 4.0 | 0.00 | 0.00 | 0.00 | 1014.2 | |
| 20260902185024 | 94 | 235 | 0.0 | 4.0 | 0.00 | 0.00 | 0.00 | 1014.2 | |
| 20260902184522 | 94 | 251 | 4.0 | 3.0 | 0.00 | 0.00 | 0.00 | 1014.2 | |
| 20260902184023 | 93 | 217 | 3.0 | 3.0 | 0.00 | 0.00 | 0.00 | 1014.2 | |
| 20260902183523 | 93 | 242 | 4.0 | 0.0 | 0.00 | 0.00 | 0.00 | 1014.2 | |
| 20260902183023 | 93 | 161 | 5.0 | 4.0 | 0.00 | 0.00 | 0.00 | 1014.2 | |
| 20260902182527 | 92 | 155 | 4.0 | 6.0 | 0.00 | 0.00 | 0.00 | 1014.2 | |
| 20260902182022 | 92 | 210 | 3.0 | 4.0 | 0.00 | 0.00 | 0.00 | 1014.2 | |
| 20260902181522 | 92 | 234 | 2.0 | 3.0 | 0.00 | 0.00 | 0.00 | 1014.2 | |
| 20260902181023 | 92 | 216 | 4.0 | 0.0 | 0.00 | 0.00 | 0.00 | 1014.2 | |
| 20260902180523 | 92 | 187 | 3.0 | 2.0 | 0.00 | 0.00 | 0.00 | 1014.2 | |
| 20260902180023 | 92 | 158 | 0.0 | 3.0 | 0.00 | 0.00 | 0.00 | 1014.2 | |
| 20260902175522 | 92 | 209 | 4.0 | 3.0 | 0.00 | 0.00 | 0.00 | 1014.2 | |
| 20260902175029 | 92 | 187 | 3.0 | 4.0 | 0.00 | 0.00 | 0.00 | 1014.2 | |
| 20260902174523 | 92 | 220 | 3.0 | 4.0 | 0.00 | 0.00 | 0.00 | 1014.2 | |
| 20260902174027 | 93 | 212 | 3.0 | 3.0 | 0.00 | 0.00 | 0.00 | 1014.2 | |
| 20260902173533 | 93 | 212 | 0.0 | 2.0 | 0.00 | 0.00 | 0.00 | 1014.2 | |
| 20260902173024 | 93 | 215 | 3.0 | 2.0 | 0.00 | 0.00 | 0.00 | 1014.2 | |
| 20260902172523 | 93 | 221 | 2.0 | 4.0 | 0.00 | 0.00 | 0.00 | 1014.2 | |
| 20260902172023 | 93 | 224 | 4.0 | 0.0 | 0.00 | 0.00 | 0.00 | 1014.2 | |
| 20260902171525 | 93 | 151 | 4.0 | 3.0 | 0.00 | 0.00 | 0.00 | 1014.2 | |
| 20260902171030 | 92 | 185 | 5.0 | 0.0 | 0.00 | 0.00 | 0.00 | 1014.2 | |
| 20260902170523 | 92 | 203 | 0.0 | 5.0 | 0.00 | 0.00 | 0.00 | 1014.2 | |
| 20260902170104 | 92 | 227 | 3.0 | 0.0 | 0.00 | 0.00 | 0.00 | 1014.2 | |
| 20260902165522 | 92 | 227 | 3.0 | 3.0 | 0.00 | 0.00 | 0.00 | 1014.2 | |
| 20260902165031 | 92 | 234 | 3.0 | 3.0 | 0.00 | 0.00 | 0.00 | 1014.2 | |
| 20260902164523 | 92 | 238 | 2.0 | 0.0 | 0.00 | 0.00 | 0.00 | 1014.2 | |
| 20260902164023 | 91 | 192 | 0.0 | 2.0 | 0.00 | 0.00 | 0.00 | 1014.2 | |
| 20260902163526 | 91 | 205 | 3.0 | 0.0 | 0.00 | 0.00 | 0.00 | 1014.2 | |
| 20260902163030 | 91 | 228 | 0.0 | 3.0 | 0.00 | 0.00 | 0.00 | 1014.2 | |
| 20260902162523 | 91 | 242 | 0.0 | 0.0 | 0.00 | 0.00 | 0.00 | 1014.2 | |
| 20260902162025 | 90 | 238 | 2.0 | 2.0 | 0.00 | 0.00 | 0.00 | 1014.2 | |
| 20260902161523 | 90 | 184 | 4.0 | 3.0 | 0.00 | 0.00 | 0.00 | 1014.2 | |
| 20260902161023 | 90 | 182 | 0.0 | 0.0 | 0.00 | 0.00 | 0.00 | 1014.2 | |
| 20260902160523 | 90 | 206 | 0.0 | 0.0 | 0.00 | 0.00 | 0.00 | 1015.2 | |
| 20260902160045 | 89 | 207 | 3.0 | 0.0 | 0.00 | 0.00 | 0.00 | 1015.2 | |
| 20260902155522 | 89 | 245 | 0.0 | 4.0 | 0.00 | 0.00 | 0.00 | 1015.2 | |
| 20260902155023 | 88 | 211 | 0.0 | 0.0 | 0.00 | 0.00 | 0.00 | 1015.2 | |
| 20260902154523 | 88 | 221 | 0.0 | 2.0 | 0.00 | 0.00 | 0.00 | 1015.2 | |
| 20260902154023 | 88 | 214 | 0.0 | 4.0 | 0.00 | 0.00 | 0.00 | 1015.2 | |
| 20260902153523 | 88 | 217 | 0.0 | 0.0 | 0.00 | 0.00 | 0.00 | 1014.2 | |
| 20260902153024 | 88 | 194 | 0.0 | 4.0 | 0.00 | 0.00 | 0.00 | 1014.2 | |
| 20260902152543 | 87 | 181 | 0.0 | 0.0 | 0.00 | 0.00 | 0.00 | 1014.2 | |
| 20260902152022 | 87 | 217 | 3.0 | 3.0 | 0.00 | 0.00 | 0.00 | 1014.2 | |
| 20260902151522 | 86 | 247 | 3.0 | 4.0 | 0.00 | 0.00 | 0.00 | 1014.2 | |
| 20260902151022 | 85 | 220 | 3.0 | 0.0 | 0.00 | 0.00 | 0.00 | 1014.2 | |
| 20260902150522 | 84 | 177 | 0.0 | 3.0 | 0.00 | 0.00 | 0.00 | 1015.2 | |
| 20260902150023 | 84 | 296 | 0.0 | 0.0 | 0.00 | 0.00 | 0.00 | 1015.2 | |
| 20260902145523 | 83 | 231 | 0.0 | 4.0 | 0.00 | 0.00 | 0.00 | 1015.2 | |
| 20260902145023 | 83 | 200 | 0.0 | 0.0 | 0.00 | 0.00 | 0.00 | 1015.2 | |
| 20260902144522 | 82 | 208 | 3.0 | 0.0 | 0.00 | 0.00 | 0.00 | 1015.2 | |
| 20260902144022 | 82 | 255 | 3.0 | 4.0 | 0.00 | 0.00 | 0.00 | 1015.2 | |
| 20260902143522 | 82 | 216 | 0.0 | 0.0 | 0.00 | 0.00 | 0.00 | 1015.2 | |
| 20260902143022 | 82 | 253 | 0.0 | 0.0 | 0.00 | 0.00 | 0.00 | 1015.2 | |
| 20260902142543 | 81 | 221 | 0.0 | 0.0 | 0.00 | 0.00 | 0.00 | 1015.2 | |
| 20260902142022 | 81 | 205 | 0.0 | 0.0 | 0.00 | 0.00 | 0.00 | 1015.2 | |
| 20260902141523 | 80 | 218 | 0.0 | 0.0 | 0.00 | 0.00 | 0.00 | 1015.2 | |
| 20260902141048 | 79 | 236 | 0.0 | 0.0 | 0.00 | 0.00 | 0.00 | 1015.2 | |
| 20260902140523 | 79 | 188 | 0.0 | 0.0 | 0.00 | 0.00 | 0.00 | 1015.2 | |
| 20260902140032 | 79 | 288 | 0.0 | 0.0 | 0.00 | 0.00 | 0.00 | 1015.2 | |
| 20260902135531 | 80 | 288 | 0.0 | 0.0 | 0.00 | 0.00 | 0.00 | 1015.2 | |
| 20260902135043 | 80 | 327 | 0.0 | 0.0 | 0.00 | 0.00 | 0.00 | 1015.2 | |
| 20260902134523 | 80 | 336 | 0.0 | 0.0 | 0.00 | 0.00 | 0.00 | 1015.2 | |
| 20260902134035 | 80 | 290 | 0.0 | 0.0 | 0.00 | 0.00 | 0.00 | 1015.2 | |
| 20260902133544 | 80 | 248 | 0.0 | 0.0 | 0.00 | 0.00 | 0.00 | 1015.2 | |
| 20260902133029 | 79 | 345 | 0.0 | 3.0 | 0.00 | 0.00 | 0.00 | 1015.2 | |
| 20260902132523 | 78 | 223 | 3.0 | 0.0 | 0.00 | 0.00 | 0.00 | 1015.2 | |
| 20260902132027 | 77 | 340 | 0.0 | 3.0 | 0.00 | 0.00 | 0.00 | 1016.2 | |
| 20260902131523 | 77 | 328 | 0.0 | 0.0 | 0.00 | 0.00 | 0.00 | 1016.2 | |
| 20260902131047 | 77 | 221 | 0.0 | 0.0 | 0.00 | 0.00 | 0.00 | 1016.2 | |
| 20260902130523 | 77 | 357 | 0.0 | 4.0 | 0.00 | 0.00 | 0.00 | 1015.2 | |
| 20260902130045 | 77 | 219 | 4.0 | 0.0 | 0.00 | 0.00 | 0.00 | 1015.2 | |
| 20260902125522 | 76 | 353 | 4.0 | 3.0 | 0.00 | 0.00 | 0.00 | 1015.2 | |
| 20260902125022 | 76 | 213 | 0.0 | 0.0 | 0.00 | 0.00 | 0.00 | 1015.2 | |
| 20260902124523 | 76 | 175 | 0.0 | 0.0 | 0.00 | 0.00 | 0.00 | 1015.2 | |
| 20260902124023 | 75 | 229 | 0.0 | 3.0 | 0.00 | 0.00 | 0.00 | 1015.2 | |
| 20260902123523 | 75 | 216 | 0.0 | 0.0 | 0.00 | 0.00 | 0.00 | 1015.2 |